Location: White Mills Observatory
(37.5374°N, 86.0303°W)
Time: 07:06:51
(UTC-04:00)

Amateur Radio Satellites - All Passes

Search period start: 26 May 2017 06:36
Search period end: 27 May 2017 06:36
Location: White Mills Observatory, 37.5374°N, 86.0303°W

Satellite Date Start Highest point End Downlink Frequencies (MHz)
Time Altitude Azimuth
KKS-1 26 May 06:39:40 06:43:00 21° 265° (W) 06:46:19 437.445
XW-2D 26 May 06:45:43 06:46:38 11° 91° (E) 06:47:32 145.860 - 145.880
O/OREOS (USA 219) 26 May 06:49:14 06:50:12 11° 306° (NW) 06:51:11 437.305
XW-2B 26 May 06:52:48 06:54:38 13° 92° (E) 06:56:28 145.730 - 145.750
DOVE 4 26 May 06:54:13 06:57:50 28° 97° (E) 07:01:33 437.250
RS-15 26 May 06:57:34 07:06:17 21° 339° (NNW) 07:15:01 29.354- 29.394
PCSat 26 May 06:59:17 07:03:38 25° 253° (WSW) 07:07:58 145.827
XW-2F 26 May 07:05:06 07:07:48 18° 94° (E) 07:10:28 145.980 - 146.000
XW-2C 26 May 07:05:33 07:08:23 19° 94° (E) 07:11:11 145.795 - 145.815
AO-7 26 May 07:05:49 07:12:32 28° 302° (WNW) 07:19:16 .
NUDT-PHONESAT 26 May 07:06:29 07:08:39 15° 93° (E) 07:10:49 437.300
JUGNU 26 May 07:07:22 07:09:58 13° 185° (S) 07:12:35 437.505
BEESAT 2 26 May 07:08:18 07:12:14 75° 119° (ESE) 07:16:15 435.950
STARS 26 May 07:12:19 07:15:37 21° 265° (W) 07:18:55 437.465
KAITUO 1B 26 May 07:13:41 07:16:24 19° 94° (E) 07:19:06 145.475/437.950
SO-50 26 May 07:15:59 07:18:29 14° 44° (NE) 07:20:58 436.795
BEESAT 3 26 May 07:30:53 07:34:04 23° 309° (NW) 07:37:16 437.485
HO-68 26 May 07:31:44 07:32:48 10° 88° (E) 07:33:53 435.675
STRAND 1 26 May 07:32:49 07:37:06 28° 68° (ENE) 07:41:25 437.568
LilacSat-2 26 May 07:42:11 07:46:03 62° 101° (E) 07:49:51 437.200
SRMSAT 26 May 07:46:08 07:48:30 12° 173° (S) 07:50:53 437.500
CUTE-I 26 May 07:57:45 08:03:04 67° 102° (ESE) 08:08:23 437.470
M-CUBED/EXP-1 PRIME 26 May 08:00:52 08:02:43 13° 62° (ENE) 08:04:31 437.505
XW-2D 26 May 08:17:21 08:21:02 45° 286° (WNW) 08:24:42 145.860 - 145.880
SEEDS 26 May 08:20:26 08:22:16 13° 91° (E) 08:24:05 437.485
XW-2B 26 May 08:25:23 08:28:57 37° 287° (WNW) 08:32:30 145.730 - 145.750
DOVE 4 26 May 08:32:17 08:35:23 20° 291° (WNW) 08:38:31 437.250
XW-2F 26 May 08:38:39 08:41:54 26° 289° (WNW) 08:45:08 145.980 - 146.000
NUDT-PHONESAT 26 May 08:39:15 08:42:37 31° 288° (WNW) 08:45:58 437.300
XW-2C 26 May 08:39:20 08:42:32 25° 289° (WNW) 08:45:42 145.795 - 145.815
KAITUO 1B 26 May 08:47:13 08:50:22 25° 289° (WNW) 08:53:30 145.475/437.950
BEESAT 2 26 May 08:49:13 08:50:30 11° 316° (NW) 08:51:47 435.950
SO-50 26 May 08:54:55 08:59:25 70° 241° (WSW) 09:03:55 436.795
NO-84 26 May 08:58:30 09:02:26 33° 127° (SE) 09:06:20 435.350 FM
CUTE 1.7 + AOD 2 26 May 09:03:44 09:08:00 70° 102° (ESE) 09:12:12 437.475
STRAND 1 26 May 09:11:42 09:16:10 31° 263° (W) 09:20:39 437.568
AO-73 26 May 09:14:15 09:16:13 13° 91° (E) 09:18:12 145.935
HO-68 26 May 09:14:19 09:21:33 76° 105° (ESE) 09:28:43 435.675
XW-2A 26 May 09:17:14 09:20:41 81° 283° (WNW) 09:24:07 145.665 - 145.685
RS-15 26 May 09:17:20 09:25:34 19° 16° (NNE) 09:33:37 29.354- 29.394
AAUSAT CUBESAT 2 26 May 09:20:10 09:23:47 29° 96° (E) 09:27:22 437.432
ZACube-1 26 May 09:26:44 09:30:05 20° 94° (E) 09:33:26 437.345
M-CUBED/EXP-1 PRIME 26 May 09:32:34 09:36:47 54° 254° (WSW) 09:40:45 437.505
SRMSAT 26 May 09:34:06 09:36:48 13° 184° (S) 09:39:32 437.500
CUBEBUG 2 26 May 09:36:02 09:40:39 77° 102° (ESE) 09:45:21 437.445
CUTE-I 26 May 09:39:34 09:42:30 15° 298° (WNW) 09:45:28 437.470
UWE-3 26 May 09:47:28 09:52:02 61° 101° (E) 09:56:38 435.000/436.395/437.385
FO-29 26 May 09:52:58 09:56:27 18° 64° (ENE) 09:59:59 435.910
SEEDS 26 May 09:54:08 09:58:11 46° 286° (WNW) 10:02:11 437.485
TIGRISAT 26 May 10:14:38 10:18:00 23° 69° (ENE) 10:21:24 435.000
Oscar 11 26 May 10:22:15 10:26:33 58° 100° (E) 10:30:49 .
NO-84 26 May 10:36:01 10:40:02 34° 322° (NW) 10:43:55 435.350 FM
UNISAT 6 26 May 10:45:16 10:49:26 56° 74° (ENE) 10:53:41 437.425
AO-73 26 May 10:48:16 10:52:43 55° 286° (WNW) 10:57:11 145.935
AAUSAT CUBESAT 2 26 May 10:56:01 10:59:02 20° 291° (WNW) 11:02:02 437.432
PRISM 26 May 11:00:44 11:04:51 66° 259° (W) 11:08:58 437.425
ZACube-1 26 May 11:02:15 11:06:24 35° 288° (WNW) 11:10:34 437.345
HO-68 26 May 11:03:32 11:08:29 20° 302° (WNW) 11:13:25 435.675
CUBEBUG 2 26 May 11:15:55 11:16:38 10° 296° (WNW) 11:17:21 437.445
DELFI C3 26 May 11:17:48 11:21:44 68° 102° (ESE) 11:25:36 145.870
UWE-3 26 May 11:25:54 11:27:57 13° 295° (WNW) 11:30:01 435.000/436.395/437.385
EO-88 26 May 11:27:19 11:30:58 62° 101° (E) 11:34:35 145.990 - 145.960
RS-15 26 May 11:30:37 11:42:20 48° 48° (NE) 11:53:28 29.354- 29.394
FO-29 26 May 11:36:12 11:41:11 46° 261° (W) 11:46:14 435.910
YUBILEINY 26 May 11:49:39 11:54:55 17° 64° (ENE) 12:00:10 435.215
TIGRISAT 26 May 11:50:57 11:54:32 26° 264° (W) 11:58:12 435.000
Oscar 11 26 May 12:00:30 12:02:09 12° 296° (WNW) 12:03:48 .
NANOSAT C BR1 26 May 12:05:15 12:08:36 24° 69° (ENE) 12:11:59 145.865
POLYITAN 1 26 May 12:09:07 12:12:44 29° 71° (ENE) 12:16:24 437.675
ESTCUBE 1 26 May 12:10:56 12:13:35 15° 93° (E) 12:16:13 437.505/2401.250
LO-87 26 May 12:12:13 12:15:12 25° 97° (E) 12:18:10 145.935 - 145.965
DUCHIFAT 1 26 May 12:15:55 12:19:28 28° 71° (ENE) 12:23:04 145.980
QB50P2 26 May 12:17:26 12:21:21 40° 73° (ENE) 12:25:18 145.880/145.840
UNISAT 6 26 May 12:25:37 12:26:30 11° 270° (W) 12:27:23 437.425
BUGSAT 1 26 May 12:37:07 12:39:15 14° 66° (ENE) 12:41:24 437.445
AIST 2D 26 May 12:42:20 12:45:41 43° 261° (W) 12:49:04 435.315
EO-79 26 May 12:54:25 12:58:35 78° 259° (W) 13:02:48 145.935-145.965
SPROUT 26 May 13:05:07 13:07:30 15° 93° (E) 13:09:53 437.525
Oscar 19 26 May 13:06:18 13:09:06 15° 62° (ENE) 13:11:53 437.125/150
VELOX 1 26 May 13:08:13 13:10:52 16° 93° (E) 13:13:29 145.980
50 SAT 26 May 13:30:30 13:31:10 10° 93° (E) 13:31:48 437.505
NANOSAT C BR1 26 May 13:40:48 13:44:12 24° 264° (W) 13:47:38 145.865
O/OREOS (USA 219) 26 May 13:41:08 13:42:15 11° 54° (NE) 13:43:22 437.305
RS-15 26 May 13:43:27 13:54:55 53° 250° (WSW) 14:05:49 29.354- 29.394
YUBILEINY 26 May 13:44:05 13:52:59 88° 84° (E) 14:01:51 435.215
DX 1 26 May 13:45:14 13:47:20 13° 93° (E) 13:49:26 434.975-435.025
POLYITAN 1 26 May 13:45:28 13:48:32 20° 265° (W) 13:51:37 437.675
LO-87 26 May 13:46:07 13:48:26 17° 291° (WNW) 13:50:44 145.935 - 145.965
ESTCUBE 1 26 May 13:46:17 13:50:35 44° 287° (WNW) 13:54:49 437.505/2401.250
DUCHIFAT 1 26 May 13:52:02 13:55:08 20° 265° (W) 13:58:15 145.980
QB50P2 26 May 13:55:00 13:57:18 14° 267° (W) 13:59:37 145.880/145.840
BUGSAT 1 26 May 14:10:30 14:14:15 39° 261° (W) 14:18:02 437.445
BEESAT 3 26 May 14:12:49 14:14:19 12° 44° (NE) 14:15:48 437.485
Gurwin Techsat 1B 26 May 14:18:28 14:23:26 43° 71° (ENE) 14:28:26 435.225
AO-7 26 May 14:21:13 14:25:31 15° 50° (NE) 14:29:50 .
AO-85 26 May 14:32:26 14:36:25 54° 58° (ENE) 14:40:37 145.980
SPROUT 26 May 14:39:32 14:43:34 42° 287° (WNW) 14:47:36 437.525
Oscar 19 26 May 14:42:39 14:47:49 66° 258° (WSW) 14:53:00 437.125/150
VELOX 1 26 May 14:43:21 14:47:27 41° 288° (WNW) 14:51:33 145.980
50 SAT 26 May 15:01:03 15:04:09 34° 287° (WNW) 15:07:14 437.505
UKube-1 26 May 15:12:13 15:16:32 86° 283° (WNW) 15:20:49 .
O/OREOS (USA 219) 26 May 15:17:42 15:22:13 75° 252° (WSW) 15:26:40 437.305
DX 1 26 May 15:19:35 15:23:45 47° 287° (WNW) 15:27:53 434.975-435.025
BEESAT 2 26 May 15:28:06 15:31:28 24° 51° (NE) 15:34:48 435.950
NO-84 26 May 15:35:31 15:37:19 13° 24° (NNE) 15:39:03 435.350 FM
YUBILEINY 26 May 15:43:30 15:48:29 17° 282° (WNW) 15:53:30 435.215
ITUPSAT 1 26 May 15:44:02 15:47:03 16° 93° (E) 15:50:03 437.325
ITAMSAT 1 26 May 15:44:11 15:48:55 38° 70° (ENE) 15:53:41 435.822/435.867
BEESAT 3 26 May 15:48:22 15:52:22 71° 242° (WSW) 15:56:17 437.485
Gurwin Techsat 1B 26 May 15:59:33 16:03:32 21° 266° (W) 16:07:32 435.225
MOZHAYETS 4 26 May 16:02:00 16:04:25 14° 92° (E) 16:06:49
AO-7 26 May 16:08:38 16:16:51 73° 70° (ENE) 16:25:08 .
AO-85 26 May 16:14:44 16:16:24 12° 251° (WSW) 16:18:05 145.980
BEESAT 26 May 16:16:33 16:21:00 37° 98° (E) 16:25:25 436.000
BEESAT 2 26 May 17:05:44 17:09:10 27° 248° (WSW) 17:12:35 435.950
NO-84 26 May 17:11:52 17:15:32 74° 43° (NE) 17:18:53 435.350 FM
ITUPSAT 1 26 May 17:20:28 17:25:05 47° 288° (WNW) 17:29:41 437.325
ITAMSAT 1 26 May 17:24:25 17:28:28 23° 265° (W) 17:32:31 435.822/435.867
MOZHAYETS 4 26 May 17:37:19 17:41:50 51° 287° (WNW) 17:46:18
CUTE-I 26 May 17:42:29 17:43:41 11° 60° (ENE) 17:44:53 437.470
BEESAT 26 May 17:54:55 17:58:30 21° 293° (WNW) 18:02:05 436.000
DOVE 4 26 May 17:57:52 18:01:38 25° 71° (ENE) 18:05:15 437.250
AO-7 26 May 18:04:16 18:10:14 22° 266° (W) 18:16:17 .
LilacSat-2 26 May 18:22:30 18:25:32 23° 70° (ENE) 18:28:36 437.200
CUBESAT XI-V 26 May 18:22:53 18:27:33 84° 103° (ESE) 18:32:09 437.345
KKS-1 26 May 18:30:59 18:35:26 85° 104° (ESE) 18:39:52 437.445
XW-2D 26 May 18:56:04 18:59:48 59° 76° (ENE) 19:03:35 145.860 - 145.880
STARS 26 May 19:02:03 19:06:27 78° 101° (E) 19:10:51 437.465
XW-2B 26 May 19:03:58 19:07:44 74° 78° (ENE) 19:11:35 145.730 - 145.750
NUDT-PHONESAT 26 May 19:15:47 19:19:28 80° 78° (ENE) 19:23:14 437.300
XW-2F 26 May 19:16:36 19:20:22 78° 257° (WSW) 19:24:12 145.980 - 146.000
CUTE-I 26 May 19:17:35 19:22:54 89° 77° (ENE) 19:28:14 437.470
XW-2C 26 May 19:17:38 19:21:25 71° 259° (W) 19:25:15 145.795 - 145.815
KAITUO 1B 26 May 19:24:14 19:27:58 76° 258° (WSW) 19:31:47 145.475/437.950
DOVE 4 26 May 19:35:16 19:39:13 27° 263° (W) 19:43:00 437.250
HO-68 26 May 19:40:38 19:47:21 46° 67° (ENE) 19:54:07 435.675
XW-2A 26 May 19:47:07 19:49:43 21° 71° (ENE) 19:52:20 145.665 - 145.685
STRAND 1 26 May 19:47:50 19:48:43 10° 90° (E) 19:49:36 437.568
Tancredo 1 26 May 19:48:23 19:49:26 11° 128° (SE) 19:50:28 437.200
CUTE 1.7 + AOD 2 26 May 19:54:12 19:58:08 37° 72° (ENE) 20:02:06 437.475
PCSat 26 May 19:54:42 19:59:58 56° 113° (ESE) 20:05:17 145.827
LilacSat-2 26 May 19:56:44 19:59:43 21° 265° (W) 20:02:43 437.200
AAUSAT CUBESAT 2 26 May 20:09:10 20:11:43 16° 67° (ENE) 20:14:17 437.432
ISS 26 May 20:18:45 20:20:53 16° 129° (SE) 20:23:00 437.550
ZACube-1 26 May 20:22:25 20:23:56 12° 64° (ENE) 20:25:25 437.345
CUBEBUG 2 26 May 20:32:20 20:36:17 46° 74° (ENE) 20:40:20 437.445
UWE-3 26 May 20:42:43 20:46:31 35° 72° (ENE) 20:50:25 435.000/436.395/437.385
SEEDS 26 May 20:43:03 20:47:18 88° 72° (ENE) 20:51:35 437.485
Oscar 11 26 May 21:15:00 21:18:54 34° 72° (ENE) 21:22:50 .
XW-2A 26 May 21:20:12 21:22:23 16° 266° (W) 21:24:36 145.665 - 145.685
Tancredo 1 26 May 21:21:48 21:24:49 55° 323° (NW) 21:27:51 437.200
STRAND 1 26 May 21:23:15 21:28:25 79° 286° (WNW) 21:33:33 437.568
HO-68 26 May 21:28:57 21:35:10 32° 263° (W) 21:41:27 435.675
CUTE 1.7 + AOD 2 26 May 21:31:20 21:34:04 17° 267° (W) 21:36:50 437.475
PCSat 26 May 21:39:39 21:43:42 21° 310° (NW) 21:47:48 145.827
AO-73 26 May 21:41:22 21:45:32 87° 84° (E) 21:49:52 145.935
AAUSAT CUBESAT 2 26 May 21:42:56 21:46:50 38° 262° (W) 21:50:46 437.432
ISS 26 May 21:53:56 21:57:06 44° 324° (NW) 22:00:18 437.550
ZACube-1 26 May 21:55:32 21:59:39 56° 260° (W) 22:03:53 437.345
DELFI C3 26 May 22:01:18 22:04:44 28° 71° (ENE) 22:08:10 145.870
EO-88 26 May 22:03:47 22:06:28 20° 70° (ENE) 22:09:10 145.990 - 145.960
CUBEBUG 2 26 May 22:11:28 22:13:10 12° 269° (W) 22:14:53 437.445
UWE-3 26 May 22:20:28 22:23:06 16° 267° (W) 22:25:48 435.000/436.395/437.385
UNISAT 6 26 May 22:39:51 22:42:30 15° 93° (E) 22:45:09 437.425
PRISM 26 May 22:44:50 22:47:39 18° 95° (E) 22:50:28 437.425
FO-29 26 May 22:45:31 22:50:59 26° 96° (E) 22:56:52 435.910
M-CUBED/EXP-1 PRIME 26 May 22:47:30 22:50:39 46° 291° (WNW) 22:53:47 437.505
Oscar 11 26 May 22:52:03 22:55:05 19° 266° (W) 22:58:09 .
Tancredo 1 26 May 23:00:18 23:01:09 11° 340° (NNW) 23:01:59 437.200
SO-50 26 May 23:06:55 23:11:26 59° 117° (ESE) 23:15:55 436.795
ESTCUBE 1 26 May 23:09:41 23:11:28 12° 64° (ENE) 23:13:16 437.505/2401.250
ISS 26 May 23:33:21 23:34:16 11° 343° (NNW) 23:35:12 437.550
DELFI C3 26 May 23:36:40 23:39:29 19° 266° (W) 23:42:21 145.870
EO-88 26 May 23:37:06 23:40:00 22° 264° (W) 23:42:56 145.990 - 145.960
TIGRISAT 26 May 23:43:00 23:47:37 69° 101° (E) 23:52:17 435.000
VELOX 1 27 May 00:04:50 00:06:28 12° 64° (ENE) 00:08:05 145.980
AIST 2D 27 May 00:10:15 00:12:20 15° 93° (E) 00:14:24 435.315
UNISAT 6 27 May 00:14:57 00:19:24 48° 287° (WNW) 00:23:53 437.425
LO-87 27 May 00:18:54 00:22:22 55° 260° (W) 00:25:51 145.935 - 145.965
PRISM 27 May 00:19:23 00:22:57 30° 290° (WNW) 00:26:29 437.425
FO-29 27 May 00:29:49 00:36:06 53° 288° (WNW) 00:43:09 435.910
EO-79 27 May 00:41:42 00:44:46 19° 94° (E) 00:47:51 145.935-145.965
ESTCUBE 1 27 May 00:43:13 00:47:42 63° 259° (W) 00:52:13 437.505/2401.250
YUBILEINY 27 May 00:49:17 00:55:03 20° 80° (E) 01:00:49 435.215
SO-50 27 May 00:49:19 00:52:15 17° 314° (NW) 00:55:10 436.795
TIGRISAT 27 May 01:22:09 01:23:42 12° 296° (WNW) 01:25:15 435.000
NANOSAT C BR1 27 May 01:25:53 01:30:04 58° 100° (E) 01:34:15 145.865
SPROUT 27 May 01:30:16 01:34:29 74° 258° (WSW) 01:38:44 437.525
POLYITAN 1 27 May 01:30:37 01:34:54 75° 102° (ESE) 01:39:11 437.675
50 SAT 27 May 01:30:48 01:34:11 53° 75° (ENE) 01:37:33 437.505
DUCHIFAT 1 27 May 01:36:24 01:40:39 70° 101° (ESE) 01:44:53 145.980
VELOX 1 27 May 01:37:59 01:42:22 61° 259° (W) 01:46:45 145.980
QB50P2 27 May 01:39:19 01:43:36 79° 283° (WNW) 01:47:52 145.880/145.840
AIST 2D 27 May 01:42:30 01:45:34 27° 288° (WNW) 01:48:36 435.315
RS-15 27 May 01:51:58 02:02:08 34° 104° (ESE) 02:12:31 29.354- 29.394
BUGSAT 1 27 May 01:53:48 01:57:28 30° 97° (E) 02:01:11 437.445
UKube-1 27 May 02:04:20 02:08:34 60° 74° (ENE) 02:12:50 .
DX 1 27 May 02:12:34 02:16:54 72° 257° (WSW) 02:21:16 434.975-435.025
Tancredo 1 27 May 02:13:54 02:15:08 12° 21° (NNE) 02:16:21 437.200
EO-79 27 May 02:16:47 02:20:33 31° 289° (WNW) 02:24:19 145.935-145.965
Gurwin Techsat 1B 27 May 02:37:23 02:41:12 20° 94° (E) 02:44:58 435.225
YUBILEINY 27 May 02:42:04 02:50:46 77° 278° (W) 02:59:34 435.215
ISS 27 May 02:47:43 02:49:47 15° 24° (NNE) 02:51:49 437.550
ITUPSAT 1 27 May 02:49:18 02:52:14 16° 64° (ENE) 02:55:10 437.325
Oscar 19 27 May 02:56:14 03:01:16 51° 100° (E) 03:06:14 437.125/150
MOZHAYETS 4 27 May 03:03:15 03:04:44 11° 63° (ENE) 03:06:13
NANOSAT C BR1 27 May 03:03:52 03:05:15 11° 296° (WNW) 03:06:39 145.865
BEESAT 27 May 03:21:00 03:25:17 35° 70° (ENE) 03:29:35 436.000
BUGSAT 1 27 May 03:29:38 03:32:37 19° 292° (WNW) 03:35:37 437.445
UKube-1 27 May 03:44:32 03:44:56 10° 269° (W) 03:45:21 .
Tancredo 1 27 May 03:48:19 03:51:22 68° 38° (NE) 03:54:24 437.200
O/OREOS (USA 219) 27 May 03:50:30 03:53:19 16° 99° (E) 03:56:07 437.305
ITAMSAT 1 27 May 04:00:06 04:03:09 16° 92° (E) 04:06:11 435.822/435.867
RS-15 27 May 04:01:40 04:13:43 69° 305° (NW) 04:26:06 29.354- 29.394
AO-7 27 May 04:13:20 04:20:05 26° 96° (E) 04:26:46 .
Gurwin Techsat 1B 27 May 04:16:15 04:21:20 47° 289° (WNW) 04:26:23 435.225
ISS 27 May 04:23:21 04:26:38 84° 225° (SW) 04:29:54 437.550
ITUPSAT 1 27 May 04:24:59 04:29:36 50° 260° (W) 04:34:16 437.325
MOZHAYETS 4 27 May 04:36:41 04:41:15 69° 259° (WSW) 04:45:53
Oscar 19 27 May 04:36:42 04:40:08 18° 296° (WNW) 04:43:34 437.125/150
PCSat 27 May 04:44:43 04:49:31 30° 54° (NE) 04:54:15 145.827
YUBILEINY 27 May 04:45:08 04:49:07 14° 299° (WNW) 04:53:09 435.215
AO-85 27 May 04:45:35 04:49:10 27° 114° (ESE) 04:52:36 145.980
BEESAT 27 May 04:59:27 05:03:05 22° 265° (W) 05:06:46 436.000
JUGNU 27 May 05:03:59 05:06:38 13° 176° (S) 05:09:18 437.505
CUBESAT XI-V 27 May 05:23:43 05:28:22 65° 75° (ENE) 05:33:03 437.345
KKS-1 27 May 05:26:46 05:31:07 60° 74° (ENE) 05:35:29 437.445
O/OREOS (USA 219) 27 May 05:27:56 05:32:19 43° 295° (WNW) 05:36:42 437.305
BEESAT 3 27 May 05:36:22 05:39:47 28° 113° (ESE) 05:43:13 437.485
ITAMSAT 1 27 May 05:37:49 05:42:56 57° 287° (WNW) 05:48:02 435.822/435.867
STARS 27 May 05:56:27 06:00:41 52° 73° (ENE) 06:04:56 437.465
AO-7 27 May 06:05:02 06:13:15 63° 292° (WNW) 06:21:28 .
AO-85 27 May 06:26:03 06:29:29 24° 308° (NW) 06:32:48 145.980
